Time,TemperatureF,DewpointF,PressureIn,WindDirection,WindDirectionDegrees,WindSpeedMPH,WindSpeedGustMPH,Humidity,HourlyPrecipIn,Conditions,Clouds,dailyrainin,SoftwareType,DateUTC
2013-09-14 00:00:00,34.1,32.8,29.91,NNE,12,2.0,5.0,95,0.00,,,0.00,Wunderground v.1.15,2013-09-14 08:00:00,
2013-09-14 00:05:00,34.4,32.9,29.91,NNE,12,3.0,5.0,94,0.00,,,0.00,Wunderground v.1.15,2013-09-14 08:05:00,
2013-09-14 00:15:00,34.4,32.6,29.92,NNE,12,1.0,2.0,93,0.00,,,0.00,Wunderground v.1.15,2013-09-14 08:15:00,
2013-09-14 00:25:00,33.4,31.3,29.92,NNE,12,1.0,2.0,92,0.00,,,0.00,Wunderground v.1.15,2013-09-14 08:25:00,
2013-09-14 00:30:00,33.4,31.9,29.93,NNE,12,2.0,2.0,94,0.00,,,0.00,Wunderground v.1.15,2013-09-14 08:30:00,
2013-09-14 00:40:00,33.4,31.9,29.93,NNE,12,1.0,1.0,94,0.00,,,0.00,Wunderground v.1.15,2013-09-14 08:40:00,
2013-09-14 00:50:00,33.4,31.9,29.93,NNE,12,0.0,0.0,94,0.00,,,0.00,Wunderground v.1.15,2013-09-14 08:50:00,
2013-09-14 00:55:00,32.8,31.0,29.93,NNE,13,0.0,0.0,93,0.00,,,0.00,Wunderground v.1.15,2013-09-14 08:55:00,
2013-09-14 01:05:00,31.9,30.1,29.93,NNE,12,0.0,0.0,93,0.00,,,0.00,Wunderground v.1.15,2013-09-14 09:05:00,
2013-09-14 01:15:00,32.1,30.6,29.93,NNE,13,1.0,1.0,94,0.00,,,0.00,Wunderground v.1.15,2013-09-14 09:15:00,
2013-09-14 01:20:00,32.1,30.8,29.93,NNE,13,0.0,0.0,95,0.00,,,0.00,Wunderground v.1.15,2013-09-14 09:20:00,
2013-09-14 01:30:00,31.8,30.8,29.94,NNE,13,0.0,0.0,96,0.00,,,0.00,Wunderground v.1.15,2013-09-14 09:30:00,
2013-09-14 01:40:00,31.9,31.1,29.94,NNE,13,0.0,1.0,97,0.00,,,0.00,Wunderground v.1.15,2013-09-14 09:40:00,
2013-09-14 01:45:00,31.9,31.1,29.94,NNE,13,1.0,2.0,97,0.00,,,0.00,Wunderground v.1.15,2013-09-14 09:45:00,
2013-09-14 01:55:00,31.8,31.0,29.94,NNE,13,1.0,1.0,97,0.00,,,0.00,Wunderground v.1.15,2013-09-14 09:55:00,
2013-09-14 02:00:00,31.6,30.8,29.94,NNE,13,0.0,0.0,97,0.00,,,0.00,Wunderground v.1.15,2013-09-14 10:00:00,
2013-09-14 02:10:00,31.6,30.8,29.94,NNE,13,1.0,1.0,97,0.00,,,0.00,Wunderground v.1.15,2013-09-14 10:10:00,
2013-09-14 02:20:00,32.2,32.0,29.95,NNE,13,0.0,0.0,99,0.00,,,0.00,Wunderground v.1.15,2013-09-14 10:20:00,
2013-09-14 02:25:00,32.8,32.8,29.95,NNE,12,1.0,1.0,100,0.00,,,0.00,Wunderground v.1.15,2013-09-14 10:25:00,
2013-09-14 02:35:00,33.4,33.1,29.95,NNE,12,1.0,1.0,99,0.00,,,0.00,Wunderground v.1.15,2013-09-14 10:35:00,
2013-09-14 02:40:00,33.5,32.7,29.95,NNE,12,1.0,1.0,97,0.00,,,0.00,Wunderground v.1.15,2013-09-14 10:40:00,
2013-09-14 02:50:00,32.9,31.6,29.95,NNE,12,1.0,1.0,95,0.00,,,0.00,Wunderground v.1.15,2013-09-14 10:50:00,
2013-09-14 02:55:00,32.8,31.5,29.95,NNE,12,0.0,1.0,95,0.00,,,0.00,Wunderground v.1.15,2013-09-14 10:55:00,
2013-09-14 03:05:00,33.1,32.6,29.96,NNE,12,0.0,0.0,98,0.00,,,0.00,Wunderground v.1.15,2013-09-14 11:05:00,
2013-09-14 03:10:00,33.4,33.1,29.96,NNE,12,0.0,1.0,99,0.00,,,0.00,Wunderground v.1.15,2013-09-14 11:10:00,
2013-09-14 03:20:00,33.2,32.2,29.96,NNE,12,1.0,1.0,96,0.00,,,0.00,Wunderground v.1.15,2013-09-14 11:20:00,
2013-09-14 03:25:00,33.1,32.1,29.96,NNE,12,1.0,1.0,96,0.00,,,0.00,Wunderground v.1.15,2013-09-14 11:25:00,
2013-09-14 03:35:00,34.0,33.2,29.96,North,9,1.0,3.0,97,0.00,,,0.00,Wunderground v.1.15,2013-09-14 11:35:00,
2013-09-14 03:45:00,34.6,33.1,29.96,North,9,2.0,2.0,94,0.00,,,0.00,Wunderground v.1.15,2013-09-14 11:45:00,
2013-09-14 03:50:00,34.6,32.8,29.96,North,9,2.0,2.0,93,0.00,,,0.00,Wunderground v.1.15,2013-09-14 11:50:00,
2013-09-14 04:00:00,34.7,32.9,29.97,North,9,1.0,1.0,93,0.00,,,0.00,Wunderground v.1.15,2013-09-14 12:00:00,
2013-09-14 04:10:00,35.2,33.1,29.97,North,9,2.0,2.0,92,0.00,,,0.00,Wunderground v.1.15,2013-09-14 12:10:00,
2013-09-14 04:20:00,34.9,32.8,29.97,North,9,2.0,2.0,92,0.00,,,0.00,Wunderground v.1.15,2013-09-14 12:20:00,
2013-09-14 04:25:00,34.9,32.8,29.97,North,9,2.0,2.0,92,0.00,,,0.00,Wunderground v.1.15,2013-09-14 12:25:00,
2013-09-14 04:35:00,34.6,32.2,29.97,North,9,2.0,3.0,91,0.00,,,0.00,Wunderground v.1.15,2013-09-14 12:35:00,
2013-09-14 04:40:00,34.3,32.2,29.97,North,9,1.0,1.0,92,0.00,,,0.00,Wunderground v.1.15,2013-09-14 12:40:00,
2013-09-14 04:50:00,34.7,32.9,29.97,North,9,0.0,0.0,93,0.00,,,0.00,Wunderground v.1.15,2013-09-14 12:50:00,
2013-09-14 04:55:00,34.9,32.8,29.97,North,9,0.0,2.0,92,0.00,,,0.00,Wunderground v.1.15,2013-09-14 12:55:00,
2013-09-14 05:05:00,34.9,32.5,29.97,North,9,2.0,2.0,91,0.00,,,0.00,Wunderground v.1.15,2013-09-14 13:05:00,
2013-09-14 05:15:00,34.9,32.8,29.98,North,9,1.0,2.0,92,0.00,,,0.00,Wunderground v.1.15,2013-09-14 13:15:00,
2013-09-14 05:25:00,35.0,32.9,29.98,North,9,0.0,0.0,92,0.00,,,0.00,Wunderground v.1.15,2013-09-14 13:25:00,
2013-09-14 05:30:00,34.9,32.8,29.98,North,9,0.0,0.0,92,0.00,,,0.00,Wunderground v.1.15,2013-09-14 13:30:00,
2013-09-14 05:40:00,34.7,32.6,29.98,North,9,0.0,0.0,92,0.00,,,0.00,Wunderground v.1.15,2013-09-14 13:40:00,
2013-09-14 05:45:00,34.6,32.8,29.98,North,9,0.0,0.0,93,0.00,,,0.00,Wunderground v.1.15,2013-09-14 13:45:00,
2013-09-14 05:55:00,34.1,32.3,29.98,North,9,0.0,0.0,93,0.00,,,0.00,Wunderground v.1.15,2013-09-14 13:55:00,
2013-09-14 06:05:00,34.1,32.6,29.99,North,9,0.0,0.0,94,0.00,,,0.00,Wunderground v.1.15,2013-09-14 14:05:00,
2013-09-14 06:15:00,34.0,32.5,29.99,North,9,0.0,0.0,94,0.00,,,0.00,Wunderground v.1.15,2013-09-14 14:15:00,
2013-09-14 06:20:00,34.0,32.7,29.99,North,9,0.0,0.0,95,0.00,,,0.00,Wunderground v.1.15,2013-09-14 14:20:00,
2013-09-14 06:30:00,34.3,33.0,29.99,North,9,0.0,0.0,95,0.00,,,0.00,Wunderground v.1.15,2013-09-14 14:30:00,
2013-09-14 06:35:00,34.0,32.7,29.99,North,9,0.0,0.0,95,0.00,,,0.00,Wunderground v.1.15,2013-09-14 14:35:00,
2013-09-14 06:45:00,33.7,32.4,29.99,North,9,0.0,0.0,95,0.00,,,0.00,Wunderground v.1.15,2013-09-14 14:45:00,
2013-09-14 06:55:00,33.7,32.4,29.99,North,9,0.0,1.0,95,0.00,,,0.00,Wunderground v.1.15,2013-09-14 14:55:00,
2013-09-14 07:05:00,33.1,31.8,29.99,North,9,0.0,0.0,95,0.00,,,0.00,Wunderground v.1.15,2013-09-14 15:05:00,
2013-09-14 07:10:00,33.1,32.1,29.99,North,9,0.0,2.0,96,0.00,,,0.00,Wunderground v.1.15,2013-09-14 15:10:00,
2013-09-14 07:20:00,32.4,31.1,29.99,North,9,0.0,0.0,95,0.00,,,0.00,Wunderground v.1.15,2013-09-14 15:20:00,
2013-09-14 07:25:00,32.2,30.9,29.99,North,9,0.0,0.0,95,0.00,,,0.00,Wunderground v.1.15,2013-09-14 15:25:00,
2013-09-14 07:35:00,32.5,31.7,29.99,North,9,0.0,0.0,97,0.00,,,0.00,Wunderground v.1.15,2013-09-14 15:35:00,
2013-09-14 07:45:00,32.4,31.6,29.99,North,9,0.0,0.0,97,0.00,,,0.00,Wunderground v.1.15,2013-09-14 15:45:00,
2013-09-14 07:55:00,32.1,31.1,29.99,North,9,1.0,2.0,96,0.00,,,0.00,Wunderground v.1.15,2013-09-14 15:55:00,
2013-09-14 08:00:00,32.1,31.1,30.00,North,9,1.0,1.0,96,0.00,,,0.00,Wunderground v.1.15,2013-09-14 16:00:00,
2013-09-14 08:10:00,31.6,30.6,30.00,North,9,0.0,0.0,96,0.00,,,0.00,Wunderground v.1.15,2013-09-14 16:10:00,
2013-09-14 08:15:00,31.6,30.6,30.00,North,9,0.0,0.0,96,0.00,,,0.00,Wunderground v.1.15,2013-09-14 16:15:00,
2013-09-14 08:20:00,31.6,30.6,30.00,North,9,0.0,0.0,96,0.00,,,0.00,Wunderground v.1.15,2013-09-14 16:20:00,
2013-09-14 08:30:00,31.5,30.5,30.00,North,9,1.0,1.0,96,0.00,,,0.00,Wunderground v.1.15,2013-09-14 16:30:00,
2013-09-14 08:40:00,31.6,30.8,30.00,North,9,1.0,1.0,97,0.00,,,0.00,Wunderground v.1.15,2013-09-14 16:40:00,
2013-09-14 08:45:00,31.2,29.9,30.00,North,9,1.0,2.0,95,0.00,,,0.00,Wunderground v.1.15,2013-09-14 16:45:00,
2013-09-14 08:55:00,30.6,29.3,30.00,North,9,1.0,1.0,95,0.00,,,0.00,Wunderground v.1.15,2013-09-14 16:55:00,
2013-09-14 09:05:00,31.0,30.0,30.01,North,9,0.0,1.0,96,0.00,,,0.00,Wunderground v.1.15,2013-09-14 17:05:00,
2013-09-14 09:10:00,31.2,30.2,30.01,North,9,0.0,0.0,96,0.00,,,0.00,Wunderground v.1.15,2013-09-14 17:10:00,
2013-09-14 09:20:00,31.8,31.0,30.01,North,9,0.0,0.0,97,0.00,,,0.00,Wunderground v.1.15,2013-09-14 17:20:00,
2013-09-14 09:30:00,32.2,31.4,30.02,North,9,0.0,0.0,97,0.00,,,0.00,Wunderground v.1.15,2013-09-14 17:30:00,
2013-09-14 09:35:00,32.4,31.6,30.02,North,9,0.0,0.0,97,0.00,,,0.00,Wunderground v.1.15,2013-09-14 17:35:00,
2013-09-14 09:45:00,32.7,31.9,30.02,North,9,0.0,0.0,97,0.00,,,0.00,Wunderground v.1.15,2013-09-14 17:45:00,
2013-09-14 09:55:00,33.1,32.6,30.02,North,9,0.0,0.0,98,0.00,,,0.00,Wunderground v.1.15,2013-09-14 17:55:00,
2013-09-14 10:00:00,33.5,33.0,30.02,North,9,0.0,0.0,98,0.00,,,0.00,Wunderground v.1.15,2013-09-14 18:00:00,
2013-09-14 10:10:00,34.0,33.5,30.02,North,9,0.0,0.0,98,0.00,,,0.00,Wunderground v.1.15,2013-09-14 18:10:00,
2013-09-14 10:15:00,34.3,33.8,30.02,North,9,0.0,0.0,98,0.00,,,0.00,Wunderground v.1.15,2013-09-14 18:15:00,
2013-09-14 10:25:00,34.7,34.2,30.02,North,9,1.0,2.0,98,0.00,,,0.00,Wunderground v.1.15,2013-09-14 18:25:00,
2013-09-14 10:35:00,35.2,34.7,30.02,North,11,1.0,3.0,98,0.00,,,0.00,Wunderground v.1.15,2013-09-14 18:35:00,
2013-09-14 10:40:00,35.3,34.8,30.02,North,11,2.0,2.0,98,0.00,,,0.00,Wunderground v.1.15,2013-09-14 18:40:00,
2013-09-14 10:45:00,35.5,35.0,30.02,NNE,15,2.0,2.0,98,0.00,,,0.00,Wunderground v.1.15,2013-09-14 18:45:00,
2013-09-14 10:55:00,35.5,34.7,30.02,NNE,20,3.0,3.0,97,0.00,,,0.00,Wunderground v.1.15,2013-09-14 18:55:00,
2013-09-14 11:00:00,35.8,35.0,30.03,NNE,20,3.0,3.0,97,0.00,,,0.00,Wunderground v.1.15,2013-09-14 19:00:00,
2013-09-14 11:10:00,36.3,35.3,30.03,NNE,20,1.0,1.0,96,0.00,,,0.00,Wunderground v.1.15,2013-09-14 19:10:00,
2013-09-14 11:20:00,37.0,35.7,30.03,NNE,20,2.0,2.0,95,0.00,,,0.00,Wunderground v.1.15,2013-09-14 19:20:00,
2013-09-14 11:25:00,37.3,36.0,30.03,NNE,20,2.0,2.0,95,0.00,,,0.00,Wunderground v.1.15,2013-09-14 19:25:00,
2013-09-14 11:35:00,37.8,36.0,30.03,NNE,20,2.0,3.0,93,0.00,,,0.00,Wunderground v.1.15,2013-09-14 19:35:00,
2013-09-14 11:45:00,38.2,36.1,30.03,NNE,20,1.0,3.0,92,0.00,,,0.00,Wunderground v.1.15,2013-09-14 19:45:00,
2013-09-14 11:55:00,38.8,36.4,30.03,NNE,20,2.0,2.0,91,0.00,,,0.00,Wunderground v.1.15,2013-09-14 19:55:00,
2013-09-14 12:00:00,39.1,36.7,30.03,NNE,23,2.0,2.0,91,0.00,,,0.00,Wunderground v.1.15,2013-09-14 20:00:00,
2013-09-14 12:05:00,39.2,36.8,30.03,NNE,29,2.0,2.0,91,0.00,,,0.00,Wunderground v.1.15,2013-09-14 20:05:00,
2013-09-14 12:15:00,39.5,36.8,30.03,NNE,29,2.0,3.0,90,0.00,,,0.00,Wunderground v.1.15,2013-09-14 20:15:00,
2013-09-14 12:25:00,39.8,37.1,30.03,NNE,29,3.0,3.0,90,0.00,,,0.00,Wunderground v.1.15,2013-09-14 20:25:00,
2013-09-14 12:35:00,40.3,37.3,30.03,NNE,29,1.0,2.0,89,0.00,,,0.00,Wunderground v.1.15,2013-09-14 20:35:00,
2013-09-14 12:45:00,40.8,37.8,30.03,NNE,29,1.0,1.0,89,0.00,,,0.00,Wunderground v.1.15,2013-09-14 20:45:00,
2013-09-14 12:55:00,41.2,37.6,30.03,NNE,29,0.0,2.0,87,0.00,,,0.00,Wunderground v.1.15,2013-09-14 20:55:00,
2013-09-14 13:05:00,41.3,37.1,30.03,NNE,29,2.0,2.0,85,0.00,,,0.00,Wunderground v.1.15,2013-09-14 21:05:00,
2013-09-14 13:15:00,41.8,37.6,30.03,NNE,29,1.0,2.0,85,0.00,,,0.00,Wunderground v.1.15,2013-09-14 21:15:00,
2013-09-14 13:20:00,42.1,37.9,30.03,NNE,29,0.0,3.0,85,0.00,,,0.00,Wunderground v.1.15,2013-09-14 21:20:00,
2013-09-14 13:30:00,42.5,38.0,30.03,NNE,29,1.0,2.0,84,0.00,,,0.00,Wunderground v.1.15,2013-09-14 21:30:00,
2013-09-14 13:35:00,42.6,38.1,30.03,NNE,29,1.0,2.0,84,0.00,,,0.00,Wunderground v.1.15,2013-09-14 21:35:00,
2013-09-14 13:40:00,42.8,38.0,30.03,NNE,29,0.0,0.0,83,0.00,,,0.00,Wunderground v.1.15,2013-09-14 21:40:00,
2013-09-14 13:50:00,43.1,37.7,30.03,NNE,29,0.0,0.0,81,0.00,,,0.00,Wunderground v.1.15,2013-09-14 21:50:00,
2013-09-14 14:00:00,43.2,37.4,30.03,NNE,29,0.0,0.0,80,0.00,,,0.00,Wunderground v.1.15,2013-09-14 22:00:00,
2013-09-14 14:05:00,43.2,37.4,30.03,NNE,29,0.0,0.0,80,0.00,,,0.00,Wunderground v.1.15,2013-09-14 22:05:00,
2013-09-14 14:10:00,-999.9,-99.9,30.03,North,32767,-999.0,0.0,255,-99.99,,,0.00,Wunderground v.1.15,2013-09-14 22:10:00,
2013-09-14 14:20:00,-999.9,-99.9,30.04,North,32767,-999.0,0.0,255,-99.99,,,0.00,Wunderground v.1.15,2013-09-14 22:20:00,
2013-09-14 14:30:00,44.1,38.0,30.04,NNE,29,0.0,0.0,79,0.00,,,0.00,Wunderground v.1.15,2013-09-14 22:30:00,
2013-09-14 14:40:00,44.8,38.7,30.04,NNE,29,0.0,0.0,79,0.00,,,0.00,Wunderground v.1.15,2013-09-14 22:40:00,
2013-09-14 14:50:00,45.1,39.0,30.04,NNE,29,0.0,0.0,79,0.00,,,0.00,Wunderground v.1.15,2013-09-14 22:50:00,
2013-09-14 15:00:00,44.9,39.4,30.03,NNE,29,1.0,1.0,81,0.00,,,0.00,Wunderground v.1.15,2013-09-14 23:00:00,
2013-09-14 15:05:00,44.9,39.1,30.03,East,85,1.0,2.0,80,0.00,,,0.00,Wunderground v.1.15,2013-09-14 23:05:00,
2013-09-14 15:15:00,44.9,39.1,30.03,SSW,197,2.0,3.0,80,0.00,,,0.00,Wunderground v.1.15,2013-09-14 23:15:00,
2013-09-14 15:25:00,44.9,39.4,30.03,SSW,196,4.0,5.0,81,0.00,,,0.00,Wunderground v.1.15,2013-09-14 23:25:00,
2013-09-14 15:30:00,44.9,39.4,30.03,SSW,194,4.0,4.0,81,0.00,,,0.00,Wunderground v.1.15,2013-09-14 23:30:00,
2013-09-14 15:35:00,44.9,39.4,30.03,SSW,194,3.0,4.0,81,0.00,,,0.00,Wunderground v.1.15,2013-09-14 23:35:00,
2013-09-14 15:40:00,44.9,39.7,30.03,SSW,200,3.0,3.0,82,0.00,,,0.00,Wunderground v.1.15,2013-09-14 23:40:00,
2013-09-14 15:50:00,44.9,39.7,30.03,South,188,4.0,6.0,82,0.00,,,0.00,Wunderground v.1.15,2013-09-14 23:50:00,
2013-09-14 15:55:00,45.1,39.9,30.03,South,187,4.0,6.0,82,0.00,,,0.00,Wunderground v.1.15,2013-09-14 23:55:00,
2013-09-14 16:05:00,45.2,40.0,30.03,South,186,3.0,6.0,82,0.00,,,0.00,Wunderground v.1.15,2013-09-15 00:05:00,
2013-09-14 16:15:00,45.2,40.0,30.03,South,180,4.0,4.0,82,0.00,,,0.00,Wunderground v.1.15,2013-09-15 00:15:00,
2013-09-14 16:20:00,45.2,40.0,30.03,South,184,4.0,6.0,82,0.00,,,0.00,Wunderground v.1.15,2013-09-15 00:20:00,
2013-09-14 16:30:00,45.1,40.2,30.03,South,184,4.0,4.0,83,0.00,,,0.00,Wunderground v.1.15,2013-09-15 00:30:00,
2013-09-14 16:40:00,45.1,40.6,30.03,South,184,3.0,3.0,84,0.00,,,0.00,Wunderground v.1.15,2013-09-15 00:40:00,
2013-09-14 16:45:00,45.1,40.6,30.03,South,184,3.0,3.0,84,0.00,,,0.00,Wunderground v.1.15,2013-09-15 00:45:00,
2013-09-14 16:55:00,45.2,41.0,30.03,South,180,2.0,5.0,85,0.00,,,0.00,Wunderground v.1.15,2013-09-15 00:55:00,
2013-09-14 17:05:00,44.8,41.2,30.03,South,180,3.0,5.0,87,0.00,,,0.00,Wunderground v.1.15,2013-09-15 01:05:00,
2013-09-14 17:15:00,44.6,41.6,30.03,South,180,3.0,3.0,89,0.00,,,0.00,Wunderground v.1.15,2013-09-15 01:15:00,
2013-09-14 17:25:00,44.6,41.6,30.03,South,180,3.0,3.0,89,0.00,,,0.00,Wunderground v.1.15,2013-09-15 01:25:00,
2013-09-14 17:30:00,44.8,41.8,30.03,South,180,3.0,6.0,89,0.00,,,0.00,Wunderground v.1.15,2013-09-15 01:30:00,
2013-09-14 17:40:00,44.9,41.6,30.03,South,180,3.0,3.0,88,0.00,,,0.00,Wunderground v.1.15,2013-09-15 01:40:00,
2013-09-14 17:45:00,44.9,41.6,30.03,South,180,3.0,5.0,88,0.00,,,0.00,Wunderground v.1.15,2013-09-15 01:45:00,
2013-09-14 17:55:00,44.8,41.5,30.03,South,180,4.0,4.0,88,0.00,,,0.00,Wunderground v.1.15,2013-09-15 01:55:00,
2013-09-14 18:00:00,44.6,41.6,30.03,South,180,4.0,5.0,89,0.00,,,0.00,Wunderground v.1.15,2013-09-15 02:00:00,
2013-09-14 18:10:00,44.5,41.7,30.03,South,180,2.0,3.0,90,0.00,,,0.00,Wunderground v.1.15,2013-09-15 02:10:00,
2013-09-14 18:20:00,44.5,41.7,30.03,South,180,2.0,2.0,90,0.00,,,0.00,Wunderground v.1.15,2013-09-15 02:20:00,
2013-09-14 18:30:00,44.5,41.7,30.03,South,180,3.0,3.0,90,0.00,,,0.00,Wunderground v.1.15,2013-09-15 02:30:00,
2013-09-14 18:40:00,44.5,42.0,30.03,South,180,2.0,2.0,91,0.00,,,0.00,Wunderground v.1.15,2013-09-15 02:40:00,
2013-09-14 18:50:00,44.6,41.8,30.03,South,180,2.0,2.0,90,0.00,,,0.00,Wunderground v.1.15,2013-09-15 02:50:00,
2013-09-14 19:00:00,44.5,41.7,30.03,South,180,1.0,1.0,90,0.00,,,0.00,Wunderground v.1.15,2013-09-15 03:00:00,
2013-09-14 19:10:00,44.5,42.0,30.03,South,180,0.0,0.0,91,0.00,,,0.00,Wunderground v.1.15,2013-09-15 03:10:00,
2013-09-14 19:20:00,44.5,42.6,30.03,South,180,0.0,0.0,93,0.00,,,0.00,Wunderground v.1.15,2013-09-15 03:20:00,
2013-09-14 19:30:00,44.2,42.9,30.03,South,180,1.0,1.0,95,0.00,,,0.00,Wunderground v.1.15,2013-09-15 03:30:00,
2013-09-14 19:35:00,44.1,43.0,30.03,South,180,1.0,1.0,96,0.00,,,0.00,Wunderground v.1.15,2013-09-15 03:35:00,
2013-09-14 19:45:00,43.8,43.3,30.03,South,180,0.0,0.0,98,0.00,,,0.00,Wunderground v.1.15,2013-09-15 03:45:00,
2013-09-14 19:55:00,43.8,43.5,30.03,South,180,1.0,2.0,99,0.00,,,0.00,Wunderground v.1.15,2013-09-15 03:55:00,
2013-09-14 20:00:00,43.6,43.6,30.03,South,180,2.0,2.0,100,0.00,,,0.00,Wunderground v.1.15,2013-09-15 04:00:00,
2013-09-14 20:05:00,43.6,43.6,30.03,South,180,1.0,2.0,100,0.00,,,0.00,Wunderground v.1.15,2013-09-15 04:05:00,
2013-09-14 20:10:00,43.6,43.6,30.03,South,180,1.0,1.0,100,0.00,,,0.00,Wunderground v.1.15,2013-09-15 04:10:00,
2013-09-14 20:15:00,43.6,43.6,30.03,South,180,1.0,1.0,100,0.00,,,0.00,Wunderground v.1.15,2013-09-15 04:15:00,
2013-09-14 20:20:00,43.6,43.6,30.03,South,180,0.0,0.0,100,0.00,,,0.00,Wunderground v.1.15,2013-09-15 04:20:00,
2013-09-14 20:30:00,43.6,43.6,30.03,South,180,0.0,0.0,100,0.00,,,0.00,Wunderground v.1.15,2013-09-15 04:30:00,
2013-09-14 20:40:00,43.5,43.5,30.03,South,180,1.0,1.0,100,0.00,,,0.00,Wunderground v.1.15,2013-09-15 04:40:00,
2013-09-14 20:50:00,43.5,43.5,30.03,South,180,0.0,0.0,100,0.00,,,0.00,Wunderground v.1.15,2013-09-15 04:50:00,
2013-09-14 21:00:00,43.5,43.5,30.03,South,180,0.0,0.0,100,0.00,,,0.00,Wunderground v.1.15,2013-09-15 05:00:00,
2013-09-14 21:10:00,43.6,43.6,30.03,South,180,0.0,0.0,100,0.00,,,0.00,Wunderground v.1.15,2013-09-15 05:10:00,
2013-09-14 21:20:00,43.5,43.5,30.04,South,180,0.0,2.0,100,0.00,,,0.01,Wunderground v.1.15,2013-09-15 05:20:00,
2013-09-14 21:30:00,43.5,43.5,30.04,South,180,0.0,0.0,100,0.00,,,0.01,Wunderground v.1.15,2013-09-15 05:30:00,
2013-09-14 21:40:00,43.5,43.5,30.04,South,180,0.0,0.0,100,0.00,,,0.01,Wunderground v.1.15,2013-09-15 05:40:00,
2013-09-14 21:50:00,43.3,43.3,30.04,South,180,0.0,0.0,100,0.00,,,0.01,Wunderground v.1.15,2013-09-15 05:50:00,
2013-09-14 21:55:00,43.3,43.3,30.04,South,180,0.0,0.0,100,0.00,,,0.01,Wunderground v.1.15,2013-09-15 05:55:00,
2013-09-14 22:05:00,43.3,43.3,30.04,South,180,0.0,0.0,100,0.00,,,0.01,Wunderground v.1.15,2013-09-15 06:05:00,
2013-09-14 22:15:00,43.3,43.3,30.04,South,180,0.0,0.0,100,0.00,,,0.01,Wunderground v.1.15,2013-09-15 06:15:00,
2013-09-14 22:25:00,43.3,43.3,30.04,South,180,0.0,0.0,100,0.00,,,0.01,Wunderground v.1.15,2013-09-15 06:25:00,
2013-09-14 22:35:00,43.2,43.2,30.04,South,180,0.0,0.0,100,0.00,,,0.01,Wunderground v.1.15,2013-09-15 06:35:00,
2013-09-14 22:45:00,43.3,43.3,30.04,South,180,0.0,0.0,100,0.00,,,0.01,Wunderground v.1.15,2013-09-15 06:45:00,
2013-09-14 22:55:00,43.5,43.5,30.04,South,180,0.0,0.0,100,0.00,,,0.01,Wunderground v.1.15,2013-09-15 06:55:00,
2013-09-14 23:00:00,43.5,43.5,30.04,South,180,0.0,0.0,100,0.00,,,0.01,Wunderground v.1.15,2013-09-15 07:00:00,
2013-09-14 23:10:00,43.5,43.5,30.04,South,180,0.0,0.0,100,0.00,,,0.01,Wunderground v.1.15,2013-09-15 07:10:00,
2013-09-14 23:20:00,43.3,43.3,30.04,South,180,0.0,0.0,100,0.00,,,0.01,Wunderground v.1.15,2013-09-15 07:20:00,
2013-09-14 23:30:00,43.3,43.3,30.05,South,180,0.0,0.0,100,0.00,,,0.01,Wunderground v.1.15,2013-09-15 07:30:00,
2013-09-14 23:35:00,43.3,43.3,30.05,South,180,0.0,0.0,100,0.00,,,0.01,Wunderground v.1.15,2013-09-15 07:35:00,
2013-09-14 23:45:00,43.2,43.2,30.04,South,180,0.0,0.0,100,0.00,,,0.01,Wunderground v.1.15,2013-09-15 07:45:00,
2013-09-14 23:55:00,43.1,43.1,30.04,South,180,0.0,1.0,100,0.00,,,0.01,Wunderground v.1.15,2013-09-15 07:55:00,